Regional Weather Roundup
Issued by NWS Newport/Morehead, NC

Current Version | Previous Version | Graphics & Text | Print | Product List | Glossary Off
Versions: 1 2 3 4 5 6 7 8 9 10 11 12 13 14 15 16 17 18 19 20 21 22 23 24 25 26 27 28 29 30 31 32 33 34 35 36 37 38 39 40 41 42 43 44 45 46 47 48 49 50

000
ASUS42 KMHX 221525
RWRMHX
WEATHER ROUNDUP FOR EASTERN NORTH CAROLINA
NATIONAL WEATHER SERVICE NEWPORT/MOREHEAD CITY NC
1000 AM EST WED FEB 22 2017

NOTE: "FAIR" INDICATES FEW OR NO CLOUDS BELOW 12,000 FEET
WITH NO SIGNIFICANT WEATHER AND/OR OBSTRUCTIONS TO VISIBILITY

NCZ015>017-031-032-045>047-102-103-221600-
NORTH COAST

CITY           SKY/WX    TMP DP  RH WIND       PRES   REMARKS
EDENTON        MOSUNNY   65  53  65 S7        30.05F
ELIZABETH CITY MOSUNNY   64  50  60 S6        30.06S
KITTY HAWK     NOT AVBL
MANTEO         MOSUNNY   65  48  55 S8        30.06F

$$

NCZ045>047-081-094-103-104-221600-
CENTRAL COAST

CITY           SKY/WX    TMP DP  RH WIND       PRES   REMARKS
FRISCO         SUNNY     70  51  51 SE6       30.05F

$$

NCZ095-097-098-100-101-221600-
SOUTHERN COAST

CITY           SKY/WX    TMP DP  RH WIND       PRES   REMARKS
BEAUFORT       SUNNY     70  54  56 S6        30.03F
CEDAR ISLAND   NOT AVBL
JACKSONVILLE   MOSUNNY   67  55  65 SE7       30.02F
PINEY ISLAND   SUNNY    N/A N/A N/A NE7       30.04F
WILMINGTON     MOSUNNY   68  55  63 SE12      30.01S


$$

NCZ011>013-027>030-043-044-078>080-089-090>093-098-221600-
COASTAL PLAIN

CITY           SKY/WX    TMP DP  RH WIND       PRES   REMARKS
AHOSKIE          N/A     61  51  70 S3        30.04F
CLINTON        SUNNY     64  55  73 E3        30.02F
ELIZABETHTOWN  MOSUNNY   66  56  68 SE7       30.01S
GOLDSBORO      MOSUNNY   65  56  72 SE7       30.01F
GREENVILLE     MOSUNNY   64  52  63 S7        30.05F
HAVELOCK       PTSUNNY   69  54  58 VRB3      30.05S
KENANSVILLE    NOT AVBL
KINSTON        MOSUNNY   64  52  63 SE6       30.04F
NEW BERN       MOSUNNY   66  53  63 E3        30.05F
RICHLANDS      MOSUNNY   67  54  63 SE8       30.03F
ROCKY MOUNT    MOSUNNY   64  53  67 SE5       30.03F
WASHINGTON     MOSUNNY   66  51  58 SE8       30.04F
WHITEVILLE     SUNNY     68  55  63 E9        29.98F

$$

AMZ130-135-150-152-154-156-158-170-250-252-270-ANZ085-086-088-633-658-670-221600-
MARINE OBSERVATIONS

STATION/POSITION TIME  TEMP    WIND        PRES    WAVE   SWELL
                       AIR SEA DIR/SP/G            HT/PER HT/PER
                 (UTC) (F)     (DEG/KT/KT) (MB)    (FT/S) (FT/S)
CHESAPEAKE LIGHT NOT AVBL
64 E VA BEACH    1450   56 54  190/  6/  6 1017.8    4/ 9   5/ 9
DUCK             1500   53 48  160/  7/ 10 1016.9
2 E DUCK         1500      49                N/A     3/ 8
OREGON INLET     1500          130/  4/  6 1017.8
13E OREGON INLT  NOT AVBL
HATTERAS CG      1500   66 58  110/  5/  7 1017.3
DIAMOND BUOY     1450   67 74  150/  8/ 12 1017.8    3/ 9   3/ 9
CAPE LOOKOUT     1500   63     120/  5/  6 1016.6
BEAUFORT LAB     1500   65 53  120/  6/  6 1016.0
30 SE NEW RVR IN 1508   68     150/ 14/ 17 1016.5
30 SE NEW RVR IN 1443      69                N/A     3/ 8
27 SE WRIGHTSVLE 1508   66 64  130/ 12/ 17 1015.7
5 SE WRIGHTSVLE  1508   60 56  120/  6/ 10 1016.0
225 S CAPE HAT   1450   65 71  100/ 14/ 17 1017.3    5/ 8   3/ 8
41 SE CHARLESTON 1450   70 69  100/ 17/ 21 1013.7    4/ 5   2/ 9

$$




USA.gov is the U.S. government's official web portal to all federal, state and local government web resources and services.